User: anonymous   Login
Location: *
(34.8620°S, 39.3380°E)
Time: 11:14:45
(UTC+00:00)
Language:

Lacrosse 4 Rocket - Orbit

View from above orbital plane
View from above orbital plane
View from above satellite
View from above satellite

Ground track
Ground track

The orbit data is extracted from the following two-line orbital elements,

1 26474U 00047B   22267.59503819  .00001259  00000-0  11635-3 0  9999
2 26474  67.9934 312.1591 0054827   0.4285 359.6894 14.97084949203284
Epoch (UTC): 24 September 2022 14:16:51
Eccentricity: 0.0054827
inclination: 67.9934°
perigee height: 538 km
apogee height: 614 km
right ascension of ascending node: 312.1591°
argument of perigee: 0.4285°
revolutions per day: 14.97084949
mean anomaly at epoch: 359.6894°
orbit number at epoch: 20328

The dashed part of the orbit path shows where the satellite is in the earth's shadow,  

DLR